When you browse on this site, cookies collect data to enhance your experience and personalize the content and advertising you see.
Visit our Privacy Policy to learn more. By continuing to use the site, you agree to this use of cookies and data.
  • en Suisse
  • Liste des pays
  • À 7 jours
  • Température de l'eau
  • Carte satellitaire
  • Carte météo
  • Widgets météo
  • user-avatar
    Se connecter

    Météo par heure à Constantine

    Ce jour, 21 Mars, Jeudi

    Heure Température Précipitation Vent Pression Humidité
    00:00 +4°C° 0.8 mm 4 m/s 709 mmHg 96%
    01:00 +4°C° 2.2 mm 4 m/s 709 mmHg 96%
    02:00 +3°C° 2.2 mm 5 m/s 708 mmHg 96%
    03:00 +3°C° 2.2 mm 6 m/s 707 mmHg 96%
    04:00 +5°C° 1.5 mm 5 m/s 707 mmHg 96%
    05:00 +5°C° 1.5 mm 4 m/s 707 mmHg 96%
    06:00 +5°C° 1.5 mm 4 m/s 707 mmHg 96%
    07:00 +6°C° 1.3 mm 4 m/s 707 mmHg 96%
    08:00 +7°C° 1.3 mm 5 m/s 707 mmHg 96%
    09:00 +8°C° 1.3 mm 6 m/s 708 mmHg 96%
    10:00 +8°C° 3.4 mm 5 m/s 708 mmHg 96%
    11:00 +8°C° 3.4 mm 5 m/s 708 mmHg 97%
    12:00 +8°C° 3.4 mm 4 m/s 708 mmHg 97%
    13:00 +8°C° 3.9 mm 4 m/s 708 mmHg 97%
    14:00 +8°C° 3.9 mm 4 m/s 707 mmHg 97%
    15:00 +8°C° 3.9 mm 4 m/s 707 mmHg 98%
    16:00 +8°C° 4.2 mm 4 m/s 707 mmHg 98%
    17:00 +8°C° 4.2 mm 4 m/s 708 mmHg 98%
    18:00 +8°C° 4.2 mm 3 m/s 708 mmHg 98%
    19:00 +8°C° 2.9 mm 3 m/s 708 mmHg 98%
    20:00 +8°C° 2.9 mm 3 m/s 709 mmHg 98%
    21:00 +8°C° 2.9 mm 3 m/s 709 mmHg 98%
    22:00 +9°C° 2.1 mm 3 m/s 709 mmHg 98%
    23:00 +9°C° 2.1 mm 3 m/s 709 mmHg 98%

    Demain, 22 Mars, Vendredi

    Heure Température Précipitation Vent Pression Humidité
    00:00 +9°C° 2.1 mm 3 m/s 709 mmHg 98%
    01:00 +9°C° 0.5 mm 2 m/s 709 mmHg 98%
    02:00 +9°C° 0.5 mm 2 m/s 709 mmHg 98%
    03:00 +9°C° 0.5 mm 2 m/s 709 mmHg 98%
    04:00 +9°C° 0.2 mm 2 m/s 709 mmHg 98%
    05:00 +9°C° 0.2 mm 2 m/s 709 mmHg 98%
    06:00 +9°C° 0.2 mm 2 m/s 710 mmHg 98%
    07:00 +9°C° 0.1 mm 2 m/s 710 mmHg 93%
    08:00 +10°C° 0.1 mm 2 m/s 711 mmHg 88%
    09:00 +12°C° 0.1 mm 2 m/s 711 mmHg 84%
    10:00 +12°C° 0.1 mm 2 m/s 711 mmHg 79%
    11:00 +12°C° 0.1 mm 3 m/s 711 mmHg 74%
    12:00 +13°C° 0.1 mm 3 m/s 711 mmHg 70%
    13:00 +12°C° 0.4 mm 3 m/s 711 mmHg 71%
    14:00 +12°C° 0.4 mm 4 m/s 711 mmHg 73%
    15:00 +12°C° 0.4 mm 4 m/s 711 mmHg 74%
    16:00 +11°C° 0.1 mm 4 m/s 711 mmHg 80%
    17:00 +10°C° 0.1 mm 3 m/s 711 mmHg 86%
    18:00 +8°C° 0.1 mm 3 m/s 711 mmHg 92%
    19:00 +8°C° 0 mm 2 m/s 712 mmHg 94%
    20:00 +8°C° 0 mm 1 m/s 712 mmHg 95%
    21:00 +7°C° 0 mm 1 m/s 713 mmHg 97%
    22:00 +7°C° 0 mm 1 m/s 713 mmHg 97%
    23:00 +7°C° 0 mm 1 m/s 712 mmHg 97%

    Après-demain, 23 Mars, Samedi

    Heure Température Précipitation Vent Pression Humidité
    00:00 +7°C° 0 mm 1 m/s 712 mmHg 97%
    01:00 +7°C° 0 mm 1 m/s 712 mmHg 96%
    02:00 +7°C° 0 mm 1 m/s 712 mmHg 96%
    03:00 +8°C° 0 mm 1 m/s 712 mmHg 95%
    04:00 +8°C° 0.5 mm 1 m/s 712 mmHg 96%
    05:00 +8°C° 0.5 mm 1 m/s 713 mmHg 96%
    06:00 +8°C° 0.5 mm 1 m/s 713 mmHg 96%
    07:00 +9°C° 0.2 mm 1 m/s 713 mmHg 94%
    08:00 +9°C° 0.2 mm 1 m/s 713 mmHg 91%
    09:00 +10°C° 0.2 mm 1 m/s 714 mmHg 89%
    10:00 +11°C° 0.1 mm 1 m/s 714 mmHg 86%
    11:00 +12°C° 0.1 mm 1 m/s 714 mmHg 83%
    12:00 +12°C° 0.1 mm 2 m/s 714 mmHg 80%
    13:00 +13°C° 0.3 mm 2 m/s 714 mmHg 80%
    14:00 +13°C° 0.3 mm 2 m/s 713 mmHg 80%
    15:00 +12°C° 0.3 mm 3 m/s 713 mmHg 80%
    16:00 +12°C° 0.1 mm 2 m/s 713 mmHg 84%
    17:00 +10°C° 0.1 mm 2 m/s 713 mmHg 88%
    18:00 +9°C° 0.1 mm 2 m/s 713 mmHg 92%
    19:00 +9°C° 0 mm 1 m/s 713 mmHg 94%
    20:00 +8°C° 0 mm 1 m/s 714 mmHg 95%
    21:00 +7°C° 0 mm 1 m/s 714 mmHg 96%
    22:00 +7°C° 0 mm 1 m/s 714 mmHg 95%
    23:00 +7°C° 0 mm 1 m/s 714 mmHg 95%

    24 Mars, Dimanche

    Heure Température Précipitation Vent Pression Humidité
    00:00 +7°C° 0 mm 1 m/s 713 mmHg 94%
    01:00 +7°C° 0 mm 1 m/s 713 mmHg 94%
    02:00 +7°C° 0 mm 1 m/s 713 mmHg 94%
    03:00 +7°C° 0 mm 1 m/s 713 mmHg 93%
    04:00 +7°C° 0 mm 1 m/s 713 mmHg 93%
    05:00 +7°C° 0 mm 1 m/s 713 mmHg 93%
    06:00 +6°C° 0 mm 2 m/s 713 mmHg 92%
    07:00 +9°C° 0 mm 2 m/s 714 mmHg 84%
    08:00 +12°C° 0 mm 2 m/s 714 mmHg 77%
    09:00 +14°C° 0 mm 2 m/s 715 mmHg 69%
    10:00 +15°C° 0.1 mm 2 m/s 715 mmHg 63%
    11:00 +16°C° 0.1 mm 2 m/s 715 mmHg 58%
    12:00 +18°C° 0.1 mm 2 m/s 714 mmHg 52%
    13:00 +18°C° 0.3 mm 2 m/s 714 mmHg 52%
    14:00 +19°C° 0.3 mm 1 m/s 714 mmHg 51%
    15:00 +19°C° 0.3 mm 1 m/s 713 mmHg 51%
    16:00 +16°C° 0.3 mm 1 m/s 713 mmHg 59%
    17:00 +15°C° 0.3 mm 1 m/s 713 mmHg 68%
    18:00 +13°C° 0.3 mm 1 m/s 713 mmHg 76%
    19:00 +12°C° 0 mm 1 m/s 713 mmHg 77%
    20:00 +12°C° 0 mm 1 m/s 713 mmHg 78%
    21:00 +10°C° 0 mm 0 m/s 713 mmHg 79%
    22:00 +11°C° 0 mm 1 m/s 713 mmHg 78%
    23:00 +11°C° 0 mm 1 m/s 712 mmHg 77%

    25 Mars, Lundi

    Heure Température Précipitation Vent Pression Humidité
    00:00 +10°C° 0 mm 1 m/s 712 mmHg 76%
    01:00 +9°C° 0 mm 2 m/s 712 mmHg 76%
    02:00 +9°C° 0 mm 2 m/s 712 mmHg 76%
    03:00 +8°C° 0 mm 2 m/s 711 mmHg 76%
    04:00 +8°C° 0 mm 2 m/s 711 mmHg 76%
    05:00 +8°C° 0 mm 2 m/s 712 mmHg 76%
    06:00 +8°C° 0 mm 2 m/s 712 mmHg 76%
    07:00 +10°C° 0 mm 2 m/s 712 mmHg 70%
    08:00 +14°C° 0 mm 2 m/s 713 mmHg 63%
    09:00 +16°C° 0 mm 2 m/s 713 mmHg 56%
    10:00 +18°C° 0 mm 1 m/s 713 mmHg 53%
    11:00 +19°C° 0 mm 1 m/s 713 mmHg 50%
    12:00 +18°C° 0 mm 0 m/s 713 mmHg 47%
    13:00 +20°C° 0.1 mm 1 m/s 712 mmHg 49%
    14:00 +20°C° 0.1 mm 1 m/s 712 mmHg 51%
    15:00 +18°C° 0.1 mm 2 m/s 711 mmHg 53%
    16:00 +17°C° 0.1 mm 2 m/s 711 mmHg 64%
    17:00 +15°C° 0.1 mm 2 m/s 710 mmHg 76%
    18:00 +13°C° 0.1 mm 2 m/s 710 mmHg 87%
    19:00 +12°C° 0 mm 1 m/s 710 mmHg 88%
    20:00 +11°C° 0 mm 1 m/s 710 mmHg 90%
    21:00 +10°C° 0 mm 1 m/s 711 mmHg 92%
    22:00 +9°C° 0 mm 0 m/s 710 mmHg 91%
    23:00 +9°C° 0 mm 0 m/s 710 mmHg 91%

    26 Mars, Mardi

    Heure Température Précipitation Vent Pression Humidité
    00:00 +9°C° 0 mm 0 m/s 710 mmHg 90%
    01:00 +9°C° 0 mm 0 m/s 710 mmHg 89%
    02:00 +9°C° 0 mm 1 m/s 710 mmHg 89%
    03:00 +9°C° 0 mm 1 m/s 709 mmHg 88%
    04:00 +10°C° 0 mm 1 m/s 709 mmHg 88%
    05:00 +10°C° 0 mm 1 m/s 710 mmHg 87%
    06:00 +10°C° 0 mm 1 m/s 710 mmHg 87%
    07:00 +12°C° 0 mm 1 m/s 710 mmHg 79%
    08:00 +14°C° 0 mm 1 m/s 711 mmHg 72%
    09:00 +16°C° 0 mm 1 m/s 711 mmHg 65%
    10:00 +18°C° 0 mm 1 m/s 711 mmHg 62%
    11:00 +19°C° 0 mm 1 m/s 711 mmHg 59%
    12:00 +19°C° 0 mm 2 m/s 711 mmHg 56%
    13:00 +18°C° 0.1 mm 2 m/s 711 mmHg 59%
    14:00 +18°C° 0.1 mm 3 m/s 710 mmHg 62%
    15:00 +18°C° 0.1 mm 3 m/s 710 mmHg 65%
    16:00 +16°C° 0.2 mm 3 m/s 710 mmHg 74%
    17:00 +14°C° 0.2 mm 3 m/s 710 mmHg 82%
    18:00 +13°C° 0.2 mm 2 m/s 710 mmHg 90%
    19:00 +12°C° 0 mm 2 m/s 710 mmHg 91%
    20:00 +11°C° 0 mm 1 m/s 710 mmHg 93%
    21:00 +8°C° 0 mm 0 m/s 711 mmHg 94%
    22:00 +9°C° 0 mm 1 m/s 711 mmHg 94%
    23:00 +9°C° 0 mm 1 m/s 711 mmHg 93%
    Voir plus